DW4230 Weather Reports


time (UTC)temp
C
wind
direction
speed
KPH
gust
KPH
rain 1hr
cm
rain 24hr
cm
rain mn
cm
humidity
%
barometer
mb
20260903234510 22 279 0.0 4.8 0.00 2.24 2.24 93 1009.9
20260903233050 22 279 3.2 6.4 0.00 2.24 2.24 93 1009.7
20260903231529 22 275 0.0 8.0 0.00 2.24 2.24 92 1009.7
20260903230054 22 124 4.8 12.9 0.00 2.24 2.24 92 1009.8
20260903224531 22 253 4.8 14.5 0.00 2.24 2.24 91 1010.0
20260903223051 23 283 9.7 17.7 0.00 2.24 2.24 90 1010.0
20260903221613 23 124 4.8 16.1 0.00 2.24 2.24 90 1010.1
20260903220046 23 247 8.0 27.4 0.00 2.24 2.24 90 1010.0
20260903214526 23 256 8.0 19.3 0.00 2.24 2.24 90 1009.9
20260903213102 23 250 6.4 22.5 0.00 2.24 2.24 90 1009.9
20260903211524 23 124 9.7 22.5 0.00 2.24 2.24 90 1010.0
20260903210126 23 264 9.7 24.1 0.00 2.24 2.24 91 1010.0
20260903204519 23 254 6.4 24.1 0.00 2.24 2.24 89 1010.0
20260903203107 23 253 12.9 25.7 0.00 2.24 2.24 89 1010.0
20260903201512 23 216 12.9 22.5 0.00 2.24 2.24 89 1010.0
20260903200045 23 232 8.0 20.9 0.00 2.24 2.24 89 1010.3
20260903194511 24 252 9.7 17.7 0.00 2.24 2.24 88 1010.3
20260903193047 24 124 6.4 17.7 0.00 2.24 2.24 89 1010.7
20260903191514 24 124 11.3 19.3 0.00 2.24 2.24 89 1010.9
20260903190050 24 217 11.3 19.3 0.00 2.24 2.24 89 1010.9
20260903184517 23 248 4.8 17.7 0.00 2.24 2.24 90 1011.1
20260903183058 23 255 6.4 17.7 0.00 2.24 2.24 90 1011.5
20260903181524 23 124 6.4 17.7 0.00 2.24 2.24 91 1011.5
20260903180109 23 251 3.2 19.3 0.00 2.24 2.24 91 1011.4
20260903174536 23 252 8.0 20.9 0.00 2.24 2.24 92 1011.5
20260903173005 22 124 8.0 20.9 0.00 2.24 2.24 93 1011.5
20260903171541 22 124 9.7 20.9 0.00 2.24 2.24 93 1011.9
20260903170012 22 242 11.3 22.5 0.00 2.24 2.24 94 1011.9
20260903164602 22 124 3.2 14.5 0.00 2.24 2.24 95 1011.6
20260903163013 22 124 6.4 12.9 0.00 2.24 2.24 95 1011.6
20260903161546 22 124 6.4 12.9 0.00 2.24 2.24 95 1011.6
20260903160007 22 253 4.8 9.7 0.00 2.24 2.24 95 1011.7
20260903154606 22 124 6.4 14.5 0.00 2.24 2.24 96 1011.8
20260903153019 22 124 1.6 12.9 0.00 2.24 2.24 96 1011.8
20260903151556 22 242 3.2 12.9 0.00 2.24 2.24 96 1012.2
20260903150023 22 247 3.2 12.9 0.00 2.24 2.24 96 1012.5
20260903144607 22 243 6.4 17.7 0.00 2.24 2.24 96 1012.5
20260903143036 21 254 8.0 16.1 0.00 2.24 2.24 96 1012.6
20260903141614 21 124 3.2 19.3 0.00 2.24 2.24 96 1013.3
20260903140016 21 231 6.4 20.9 0.00 2.24 2.24 96 1013.2
20260903134557 21 124 9.7 22.5 0.05 2.24 2.24 96 1013.3
20260903133020 21 249 9.7 25.7 0.05 2.24 2.24 95 1013.3
20260903131548 21 256 12.9 27.4 0.05 2.24 2.24 96 1013.0
20260903130019 21 124 12.9 29.0 0.15 2.24 2.24 95 1012.9
20260903124546 21 124 11.3 20.9 0.13 2.18 2.18 95 1013.3
20260903123014 20 124 6.4 25.7 0.33 2.18 2.18 95 1013.8
20260903121556 20 233 8.0 19.3 0.33 2.18 2.18 95 1013.5
20260903120012 20 190 6.4 25.7 0.25 2.08 2.08 95 1013.7
20260903114549 20 187 4.8 12.9 0.23 2.06 2.06 95 1014.0
20260903113005 20 198 8.0 17.7 0.08 1.85 1.85 95 1014.1
20260903111546 20 124 4.8 14.5 0.53 1.85 1.85 95 1014.2
20260903110017 19 198 6.4 17.7 0.56 1.83 1.83 95 1014.2
20260903104559 19 196 3.2 20.9 0.81 1.83 1.83 94 1014.1
20260903103028 18 147 3.2 16.1 1.32 1.78 1.78 94 1013.9
20260903101611 18 177 3.2 12.9 1.19 1.32 1.32 94 1014.1
20260903100036 18 193 1.6 11.3 1.19 1.27 1.27 94 1013.9
20260903094509 18 167 3.2 12.9 0.91 0.97 0.97 93 1014.3
20260903093105 18 168 0.0 11.3 0.43 0.46 0.46 93 1014.4
20260903091518 18 205 0.0 8.0 0.10 0.13 0.13 92 1014.3
20260903090054 18 181 1.6 14.5 0.05 0.08 0.08 92 1014.3
20260903084509 18 191 3.2 16.1 0.03 0.03 0.03 92 1014.4
20260903083044 18 168 1.6 11.3 0.03 0.03 0.03 92 1014.5
20260903081521 18 171 1.6 9.7 0.03 0.03 0.03 92 1014.6
20260903080031 18 191 0.0 8.0 0.03 0.03 0.03 91 1014.9
20260903074503 18 142 3.2 14.5 0.00 0.00 0.00 90 1015.2
20260903073022 19 198 3.2 12.9 0.00 0.00 0.00 88 1015.3
20260903071609 19 192 3.2 12.9 0.00 0.00 0.00 88 1015.4
20260903070031 19 172 4.8 14.5 0.00 0.00 0.00 87 1015.5
20260903064606 19 192 3.2 17.7 0.00 0.00 0.00 86 1015.7
20260903063102 19 200 6.4 16.1 0.00 0.00 0.00 85 1015.9
20260903061555 19 187 3.2 9.7 0.00 0.00 0.00 85 1016.3
20260903060025 19 172 4.8 12.9 0.00 0.00 0.00 86 1016.2
20260903054617 18 160 0.0 12.9 0.00 0.00 0.00 85 1016.7
20260903053037 18 156 3.2 11.3 0.00 0.00 0.00 86 1016.9
20260903051505 18 148 3.2 11.3 0.00 0.00 0.00 86 1016.9
20260903050107 18 202 3.2 8.0 0.00 0.00 0.00 86 1017.3
20260903044512 18 155 3.2 11.3 0.00 0.00 0.00 85 1017.2
20260903033104 18 207 4.8 16.1 0.00 0.00 0.00 79 1017.3
20260903031525 18 188 3.2 16.1 0.00 0.00 0.00 77 1017.8
20260903030110 18 150 4.8 14.5 0.00 0.00 0.00 81 1017.8
20260903024536 18 193 3.2 11.3 0.00 0.00 0.00 82 1017.8
20260903023003 19 207 3.2 12.9 0.00 0.00 0.00 80 1017.6
20260903021540 19 157 4.8 17.7 0.00 0.00 0.00 80 1017.8
20260903020009 19 200 4.8 14.5 0.00 0.00 0.00 79 1018.0
20260903014555 19 201 4.8 12.9 0.00 0.00 0.00 77 1018.4
20260903013022 19 141 3.2 14.5 0.00 0.00 0.00 76 1018.3
20260903011609 19 178 4.8 16.1 0.00 0.00 0.00 75 1018.4
20260903010029 19 163 1.6 19.3 0.00 0.00 0.00 77 1018.4
20260903004554 19 197 6.4 17.7 0.00 0.00 0.00 77 1018.4
20260903003020 19 154 3.2 12.9 0.00 0.00 0.00 78 1018.2
20260903001548 19 133 4.8 14.5 0.00 0.00 0.00 76 1018.6
20260903000019 19 189 3.2 16.1 0.00 0.00 0.00 77 1018.7